Location: Huntsville
(41.2590°N, 111.7678°W)
Time: 16:02:01
(UTC+00:00)

BlueWalker 3 - Pass Details

Date: 10 December 2022
Orbit: 499 x 517 km, 53.2° (Epoch: 01 February)

Event Time Altitude Azimuth Distance (km) Brightness Sun altitude
Rises 02:43:08 0° 300° (WNW) 2,619 6.3 -30.2°
Reaches altitude 10° 02:45:30 10° 290° (WNW) 1,725 5.4 -30.7°
Enters shadow 02:47:17 22° 271° (W) 1,156 4.4 -31.0°
